When you browse on this site, cookies collect data to enhance your experience and personalize the content and advertising you see.
Visit our Privacy Policy to learn more. By continuing to use the site, you agree to this use of cookies and data.

Stündliche Wetter Manta

Heute, 4 August, Dienstag

Zeit Temperatur Niederschläge Wind Luftdruck Luftfeuchtigkeit
00:00 +13°C° 0.1 mm 0 m/S 586 mmHg 98%
01:00 +13°C° 0.1 mm 0 m/S 586 mmHg 98%
02:00 +13°C° 0.1 mm 0 m/S 586 mmHg 98%
03:00 +13°C° 0.1 mm 1 m/S 585 mmHg 98%
04:00 +13°C° 0.1 mm 1 m/S 585 mmHg 98%
05:00 +13°C° 0.1 mm 1 m/S 585 mmHg 97%
06:00 +14°C° 0.1 mm 1 m/S 585 mmHg 97%
07:00 +14°C° 0.1 mm 1 m/S 586 mmHg 96%
08:00 +15°C° 0.1 mm 1 m/S 586 mmHg 90%
09:00 +16°C° 0.1 mm 1 m/S 587 mmHg 84%
10:00 +18°C° 0.1 mm 2 m/S 588 mmHg 79%
11:00 +18°C° 0.4 mm 2 m/S 587 mmHg 79%
12:00 +18°C° 0.4 mm 2 m/S 587 mmHg 78%
13:00 +19°C° 0.4 mm 2 m/S 587 mmHg 78%
14:00 +18°C° 0.4 mm 2 m/S 586 mmHg 81%
15:00 +18°C° 0.4 mm 2 m/S 585 mmHg 84%
16:00 +17°C° 0.4 mm 2 m/S 585 mmHg 86%
17:00 +16°C° 0.2 mm 1 m/S 585 mmHg 90%
18:00 +15°C° 0.2 mm 1 m/S 584 mmHg 95%
19:00 +14°C° 0.2 mm 1 m/S 584 mmHg 99%
20:00 +14°C° 0 mm 1 m/S 585 mmHg 98%
21:00 +13°C° 0 mm 0 m/S 585 mmHg 98%
22:00 +13°C° 0 mm 0 m/S 586 mmHg 97%
23:00 +13°C° 0 mm 0 m/S 586 mmHg 97%

Morgen, 5 August, Mittwoch

Zeit Temperatur Niederschläge Wind Luftdruck Luftfeuchtigkeit
00:00 +12°C° 0 mm 0 m/S 585 mmHg 97%
01:00 +13°C° 0 mm 1 m/S 585 mmHg 97%
02:00 +12°C° 0 mm 0 m/S 585 mmHg 97%
03:00 +12°C° 0 mm 0 m/S 584 mmHg 97%
04:00 +11°C° 0 mm 0 m/S 584 mmHg 97%
05:00 +12°C° 0 mm 0 m/S 584 mmHg 96%
06:00 +12°C° 0 mm 0 m/S 585 mmHg 95%
07:00 +12°C° 0 mm 0 m/S 585 mmHg 94%
08:00 +14°C° 0.1 mm 1 m/S 585 mmHg 92%
09:00 +15°C° 0.1 mm 1 m/S 586 mmHg 89%
10:00 +15°C° 0.1 mm 1 m/S 586 mmHg 87%
11:00 +15°C° 0.2 mm 1 m/S 586 mmHg 87%
12:00 +16°C° 0.2 mm 1 m/S 585 mmHg 87%
13:00 +16°C° 0.2 mm 2 m/S 585 mmHg 88%
14:00 +16°C° 0.1 mm 1 m/S 584 mmHg 89%
15:00 +15°C° 0.1 mm 1 m/S 584 mmHg 90%
16:00 +15°C° 0.1 mm 1 m/S 583 mmHg 91%
17:00 +14°C° 0 mm 1 m/S 584 mmHg 92%
18:00 +13°C° 0 mm 0 m/S 584 mmHg 94%
19:00 +12°C° 0 mm 0 m/S 584 mmHg 95%
20:00 +12°C° 0 mm 0 m/S 584 mmHg 95%
21:00 +12°C° 0 mm 0 m/S 584 mmHg 95%
22:00 +12°C° 0 mm 1 m/S 585 mmHg 95%
23:00 +12°C° 0 mm 1 m/S 584 mmHg 95%

übermorgen, 6 August, Donnerstag

Zeit Temperatur Niederschläge Wind Luftdruck Luftfeuchtigkeit
00:00 +11°C° 0 mm 0 m/S 584 mmHg 94%
01:00 +11°C° 0 mm 0 m/S 584 mmHg 94%
02:00 +11°C° 0 mm 0 m/S 584 mmHg 94%
03:00 +11°C° 0 mm 0 m/S 584 mmHg 94%
04:00 +11°C° 0 mm 0 m/S 583 mmHg 95%
05:00 +12°C° 0.1 mm 0 m/S 584 mmHg 94%
06:00 +12°C° 0.1 mm 0 m/S 584 mmHg 94%
07:00 +12°C° 0.1 mm 0 m/S 585 mmHg 94%
08:00 +12°C° 0.2 mm 0 m/S 585 mmHg 94%
09:00 +14°C° 0.2 mm 1 m/S 585 mmHg 93%
10:00 +14°C° 0.2 mm 1 m/S 586 mmHg 93%
11:00 +15°C° 0.2 mm 1 m/S 586 mmHg 89%
12:00 +16°C° 0.2 mm 1 m/S 586 mmHg 85%
13:00 +17°C° 0.2 mm 2 m/S 586 mmHg 81%
14:00 +17°C° 0.3 mm 2 m/S 585 mmHg 81%
15:00 +17°C° 0.3 mm 2 m/S 584 mmHg 81%
16:00 +17°C° 0.3 mm 2 m/S 584 mmHg 81%
17:00 +16°C° 0.2 mm 1 m/S 584 mmHg 87%
18:00 +14°C° 0.2 mm 1 m/S 584 mmHg 92%
19:00 +12°C° 0.2 mm 0 m/S 583 mmHg 98%
20:00 +12°C° 0.1 mm 0 m/S 584 mmHg 97%
21:00 +12°C° 0.1 mm 0 m/S 585 mmHg 97%
22:00 +12°C° 0.1 mm 0 m/S 585 mmHg 97%
23:00 +12°C° 0 mm 0 m/S 585 mmHg 97%

7 August, Freitag

Zeit Temperatur Niederschläge Wind Luftdruck Luftfeuchtigkeit
00:00 +12°C° 0 mm 0 m/S 585 mmHg 97%
01:00 +12°C° 0 mm 0 m/S 585 mmHg 97%
02:00 +12°C° 0 mm 0 m/S 585 mmHg 97%
03:00 +12°C° 0 mm 0 m/S 584 mmHg 98%
04:00 +12°C° 0 mm 0 m/S 584 mmHg 98%
05:00 +12°C° 0 mm 0 m/S 585 mmHg 97%
06:00 +13°C° 0 mm 1 m/S 585 mmHg 97%
07:00 +13°C° 0 mm 1 m/S 585 mmHg 97%
08:00 +14°C° 0.1 mm 1 m/S 586 mmHg 96%
09:00 +14°C° 0.1 mm 1 m/S 586 mmHg 95%
10:00 +14°C° 0.1 mm 1 m/S 586 mmHg 95%
11:00 +15°C° 0.2 mm 1 m/S 586 mmHg 95%
12:00 +15°C° 0.2 mm 1 m/S 585 mmHg 95%
13:00 +15°C° 0.2 mm 1 m/S 585 mmHg 95%
14:00 +15°C° 0.2 mm 1 m/S 584 mmHg 95%
15:00 +15°C° 0.2 mm 1 m/S 584 mmHg 95%
16:00 +14°C° 0.2 mm 1 m/S 583 mmHg 95%
17:00 +14°C° 0 mm 1 m/S 584 mmHg 95%
18:00 +14°C° 0 mm 1 m/S 584 mmHg 96%
19:00 +13°C° 0 mm 1 m/S 584 mmHg 96%
20:00 +13°C° 0 mm 1 m/S 585 mmHg 96%
21:00 +13°C° 0 mm 1 m/S 585 mmHg 96%
22:00 +13°C° 0 mm 1 m/S 585 mmHg 96%
23:00 +13°C° 0 mm 1 m/S 585 mmHg 96%

8 August, Samstag

Zeit Temperatur Niederschläge Wind Luftdruck Luftfeuchtigkeit
00:00 +11°C° 0 mm 0 m/S 585 mmHg 96%
01:00 +11°C° 0 mm 0 m/S 585 mmHg 95%
02:00 +11°C° 0.2 mm 0 m/S 585 mmHg 96%
03:00 +11°C° 0.2 mm 0 m/S 584 mmHg 97%
04:00 +11°C° 0.2 mm 0 m/S 584 mmHg 97%
05:00 +12°C° 0.3 mm 0 m/S 585 mmHg 97%
06:00 +12°C° 0.3 mm 0 m/S 585 mmHg 97%
07:00 +12°C° 0.3 mm 0 m/S 586 mmHg 97%
08:00 +13°C° 0.2 mm 1 m/S 586 mmHg 97%
09:00 +14°C° 0.2 mm 1 m/S 586 mmHg 97%
10:00 +14°C° 0.2 mm 1 m/S 587 mmHg 96%
11:00 +15°C° 0.2 mm 1 m/S 586 mmHg 95%
12:00 +15°C° 0.2 mm 1 m/S 586 mmHg 94%
13:00 +15°C° 0.2 mm 1 m/S 585 mmHg 94%
14:00 +15°C° 0.1 mm 1 m/S 585 mmHg 93%
15:00 +15°C° 0.1 mm 1 m/S 584 mmHg 92%
16:00 +15°C° 0.1 mm 1 m/S 584 mmHg 92%
17:00 +15°C° 0.1 mm 1 m/S 584 mmHg 94%
18:00 +14°C° 0.1 mm 1 m/S 584 mmHg 96%
19:00 +14°C° 0.1 mm 1 m/S 585 mmHg 97%
20:00 +13°C° 0 mm 1 m/S 585 mmHg 97%
21:00 +13°C° 0 mm 1 m/S 585 mmHg 97%
22:00 +13°C° 0 mm 1 m/S 586 mmHg 97%
23:00 +13°C° 0 mm 1 m/S 585 mmHg 97%

9 August, Sonntag

Zeit Temperatur Niederschläge Wind Luftdruck Luftfeuchtigkeit
00:00 +12°C° 0 mm 0 m/S 585 mmHg 96%
01:00 +12°C° 0 mm 0 m/S 585 mmHg 95%
02:00 +12°C° 0.3 mm 0 m/S 585 mmHg 96%
03:00 +12°C° 0.3 mm 0 m/S 584 mmHg 97%
04:00 +12°C° 0.3 mm 0 m/S 584 mmHg 98%
05:00 +12°C° 0.4 mm 0 m/S 585 mmHg 98%
06:00 +12°C° 0.4 mm 0 m/S 585 mmHg 98%
07:00 +12°C° 0.4 mm 0 m/S 586 mmHg 98%
08:00 +13°C° 0.3 mm 0 m/S 586 mmHg 98%
09:00 +14°C° 0.3 mm 1 m/S 586 mmHg 97%
10:00 +14°C° 0.3 mm 1 m/S 586 mmHg 97%
11:00 +15°C° 0.3 mm 1 m/S 586 mmHg 96%
12:00 +15°C° 0.3 mm 1 m/S 585 mmHg 95%
13:00 +15°C° 0.3 mm 1 m/S 585 mmHg 93%
14:00 +16°C° 0.4 mm 1 m/S 585 mmHg 91%
15:00 +16°C° 0.4 mm 1 m/S 584 mmHg 89%
16:00 +18°C° 0.4 mm 1 m/S 584 mmHg 87%
17:00 +16°C° 0.2 mm 1 m/S 584 mmHg 90%
18:00 +14°C° 0.2 mm 1 m/S 584 mmHg 94%
19:00 +12°C° 0.2 mm 0 m/S 583 mmHg 97%
20:00 +13°C° 0 mm 1 m/S 584 mmHg 97%
21:00 +13°C° 0 mm 1 m/S 584 mmHg 96%
22:00 +13°C° 0 mm 1 m/S 585 mmHg 96%
23:00 +12°C° 0 mm 1 m/S 584 mmHg 96%
Mehr zeigen